Погода в Константиновске

Погода в Константиновске : погода сейчас, прогноз погоды и архив. Всё, что Вы хотите узнать о погоде в Константиновске!

Поиск расширенной информации на нашем сайте:

Другие новости

Новости СМИ2

Главная страница сайта

Новости сайта

03.07.2017

Напоминаем, что на нашем специализированном сайте Метеоцентр.Азия вы можете получить высокодетализированные автоматические прогнозы погоды по пунктам России, СНГ и мира в авиационном формате (включающие направление и скорость ветра, видимость, явления погоды, количество и форму облачности, нижнюю и верхнюю границу облачности).


Погода в Константиновске - сегодня

Время (UTC), дата Ветер
(°,м/с) 
Видим.   Явления Облачность Т
(°С)
Тd
(°С)
f(%) Тe
(°С)
Pmin
(гПа)
dP
(гПа)
Po
(мм)
O2
(г/м3)
Тmin Tmax R s Состояние
почвы
03 19.10.18 080 (В) 10 км    ясно 
+9.2 +5.2 76 +9  1022  -0.4  761  296  +9.2        сухая 
06 19.10.18 070 (В) 10 км    ясно 
+11.3 +6 70 +11  1022.2  0.3  761  294  +8.5         
09 19.10.18 110 (В) 10 км    ясно 
+19 +9.4 54 +20  1020.8  -1.2  760  285           
12 19.10.18 110 (В) 10 км    ясно 
+21.1 +7.1 40 +21  1019.1  -1.7  759  283           
15 19.10.18 100 (В) 10 км    ясно 
+16.5 +8.6 60 +17  1018.7  -0.5  758  287    +22       
18 19.10.18 100 (В) 10 км    ясно 
+13.4 +8.6 73 +14  1018.6  -0.2  758  290           
21 19.10.18 080 (В) 4000 м  дымка  ясно 
+10.4 +8.4 87 +10  1017.4  -1.3  757  293           
00 20.10.18 080 (В) 4000 м  дымка  ясно 
+9.1 +8 93 +9  1016.8  -0.6  757  294           
03 20.10.18 090 (В) 1000 м  туман  ясно 
+11.6 +10.6 94 +15  1016.6  -0.1  757  291  +9.1        сухая 
06 20.10.18 130 (ЮВ) 4000 м  дымка{туман}  10/8 600 м средняя 
[Cu Sc|Ac As]
+13.2 +11.5 89 +17  1016.7  0.1  757  289           
09 20.10.18 160 (Ю) 10 км    8/6 600 м средняя 
[Cu Sc|Ac trans]
+17.2 +11.7 70 +21  1016.1  -0.4  757  285           
12 20.10.18 220 (ЮЗ) 10 км    10/10 600 м 
[Cu Sc]
+18.8 +11.6 63 +23  1015.3  -0.8  756  283           
15 20.10.18 тихо ()   10 км    10/10 600 м 
[Cu Sc]
+15.5 +11.4 77 +18  1015.5  0.1  756  286    +18.8       
18 20.10.18 010 (С) 4000 м  дымка{ливн. осадки}  10/10 600 м 
[Cu Sc]
+14.4 +13 91 +21  1015.4  -0.1  756  287           
21 20.10.18 тихо ()   2000 м  дымка  10/10 600 м 
[Cu Sc]
+13.8 +12.7 93 +19  1015  -0.4  756  287           
00 21.10.18 тихо ()   2000 м  дымка  10/10 600 м 
[Cu Sc]
+12 +11 94 +14  1014.9  -0.2  756  290           
03 21.10.18 050 (СВ) 2000 м  дымка  10/10 600 м 
[Cu Sc]
+11.6 +10.8 95 +15  1015.2  0.3  756  290  +10.9    0.8     
06 21.10.18 тихо ()   0500 м  туман  ?/?  
+12.4 +11.6 95 +16  1016.2  757  289           
09 21.10.18 170 (Ю) 10 км    10/6 600 м средняя 
[Sc|Ac As]
+17.4 +11.8 70 +22  1016.4  0.4  757  284           
12 21.10.18 210 (ЮЗ) 10 км    10/8 600 м средняя 
[Sc|Ac As]
+18.8 +11.3 62 +23  1016.3  -0.1  757  283           
15 21.10.18 020 (С) 10 км    10/8 600 м средняя 
[Cu Sc|Ac trans]
+16.1 +11.9 76 +21  1016.5  0.1  757  286    +19.1       
18 21.10.18 330 (СЗ) 4000 м  слаб. ливневой дождь  10/8 600 м кучево-дожд., средняя 
[Cb cap|Ac As]
+14.4 +13 91 +21  1017.2  0.6  757  287           
21 21.10.18 350 (С) 4000 м  ливневой дождь{гроза}  10/10 600 м кучево-дожд. 
[Cb cap]
+14.4 +13.3 93 +22  1017.9  0.7  758  287           
00 22.10.18 050 (СВ) 4000 м  дымка{гроза, ливн. осадки}  10/8 600 м кучево-дожд., средняя 
[Cb calv|Ac As]
+14.3 +13.3 94 +20  1017.2  -0.6  757  287           
03 22.10.18 070 (В) 4000 м  слаб. ливневой дождь  10/8 600 м кучево-дожд., средняя 
[Cb cap|Ac As]
+13.1 +11.2 88 +16  1017.5  0.2  758  289  +13.1    37     
Время (UTC), дата Ветер
(°,м/с) 
Видим.   Явления Облачность Т
(°С)
Тd
(°С)
f(%) Тe
(°С)
Pmin
(гПа)
dP
(гПа)
Po
(мм)
O2
(г/м3)
Тmin Tmax R s Состояние
почвы

Для получения пояснительной информации подведите курсор к названию столбца.

ПОГОДА в Константиновске - архив

Всё, что Вы хотите узнать о погоде в Константиновске - удобно и подробно!

Выберите нужную дату (начиная с 1 января 2015* года) и нажмите кнопку "Найти".
Будут отображены архивные сводки погоды по пункту Константиновск, начиная с указанной даты.


Отображать данные в формате CSV (для использования в таблицах Excel)


Внимание! Наш архив погоды предназначен исключительно для личного некоммерческого использования в познавательных целях. Если Вам необходимы официальные справки о состоянии погоды (для производственных, юридических, коммерческих и т.п. целей), обращайтесь в органы Росгидромета.

*Примечание: данная дата относится к архиву по метеостанциям СССР (Россия, СНГ, Балтия).
Архив по метеостанциям Зарубежной Европы и Азии (кроме Китая) хранится 10 дней, по другим регионам земного шара (Китай, Африка, Америка, Австралия, Океания) - 1 день.

Константиновск - район местоположения метеостанции


Название, широта, долгота, высота метеостанции:
Константиновск 47.6°ш. 41.1°д. 66 м над ур. моря [Российская Федерация]

Дополнительная информация

В oтличие oт бoльшинства пoгoдных сайтoв мы публикуем пoдрoбную метеoинфoрмацию в детальнoм прoфессиoнальнoм фoрмате.

Характеристики температуры и влажнoсти вoздуха измеряются на высoте 2 м в тени вдали oт зданий и деревьев.
Скoрoсть ветра измеряется на высoте 10 м (на урoвне рoста челoвека скoрoсть ветра ниже в 1.5-2 раза). Если метеoстанция нахoдится в гoрoде или в лесу, тo скoрoсть ветра занижена на 2-4 м/с пo сравнению с oткрытым местoм. Скoрoсть ветра над акватoриями крупных рек и oзёр, а также на вершинах хoлмoв на 2-5 м/с выше, чем в oбычных услoвиях.
Атмoсфернoе давление в разных тoчках местнoсти мoжет значительнo oтличаться oт давления на метеoстанции, в зависимoсти oт услoвий рельефа (при пoдъёме на 10 м давление пoнижается примернo на 1 мм рт.ст.).